Location: Unspecified
(44.1794°N, 0.0000°E)
Time: 05:34:00
(UTC+00:00)

S-56A Canister/Altair - Visible Passes

Search period start: 04 April 2026 00:00
Search period end: 14 April 2026 00:00
Orbit: 632 x 2485 km, 38.9° (Epoch: 28 March)

Date Brightness Start Highest point End Pass type
(mag) Time Alt. Az. Time Alt. Az. Time Alt. Az.
6 Apr 11.8 04:54:55 10° SSE 05:00:32 13° SE 05:06:23 10° ESE visible
7 Apr 11.8 04:24:39 10° SE 04:25:22 10° ESE 04:26:05 10° ESE visible
10 Apr 11.2 04:33:25 10° S 04:42:18 23° SE 04:52:25 10° E visible
11 Apr 11.2 03:59:33 10° SSE 04:07:06 19° SE 04:15:41 10° E visible
12 Apr 11.2 03:26:11 10° SSE 03:31:59 15° SE 03:38:28 10° E visible
13 Apr 11.3 02:54:09 10° SE 02:56:59 11° ESE 02:59:58 10° ESE visible
13 Apr 10.8 04:49:07 10° SSW 04:59:37 38° SE 05:12:29 10° E visible
